Starlink 11500

operational
NORAD ID: 62472 Int'l Des: 2024-254 Owner: SPXS Country: US Constellation: starlink
LEOCIRCULAR

关于 Starlink 11500

正在加载描述...

实时位置

正在加载3D地球...

即将过境

高度历史

Altitude vs Time

uPlot chart will show altitude changes over time

两行轨道根数

1 62472U 24254L 25301.66674769 -.00071532 00000-0 -55820-3 0 9993
2 62472 43.0002 298.4921 0001435 270.0910 339.0465 15.70864242 6004
Epoch: Oct 28, 2025 • Age: 5 hours

当前状态

高度 366.5 km
速度 7.69 km/s
星下点 -37.22°S, 106.04°W
发射日期 Dec 31, 2024
运行时间 0.8 years
类型 internet

技术详情

分类 Payload
质量 960.00 kg
干质量 910.00 kg
总质量 960.00 kg
长度 0.30 m
直径 4.10 m
跨度 29.00 m
形状 Box + pan
制造商 SPXS
平台类型 Starlink V2MD
阶段状态 In Orbit
所有者/国家 SPXS/US

大型星座

Loading constellations...